Back to catalog

CZ-6A DEB

AlivePO
NORAD 61463·DEBRIS·🇨🇳 China

Launched Aug 6, 2024 from Taiyuan Satellite Launch Center

Loading…

Next Passes (next 24 hours)

TLE

FreshSource: Space-Track

Epoch: Sep 14, 2026, 11:30 UTC

1 61463U 24140ZV  26257.47922929  .00001434  00000-0  63300-3 0  9994
2 61463  89.0046 265.3031 0047690 252.9369 106.6595 14.22242849103397

Track CZ-6A DEB in real time with AllMySat

Download on the App Store